Location: Biharia
(46.4333°N, 22.8000°E)
Time: 04:32:33
(UTC+00:00)

Okean-O - Pass Details

Date: 26 May 2022
Orbit: 638 x 640 km, 98.1° (Epoch: 01 July)

Event Time Altitude Azimuth Distance (km) Brightness Sun altitude
Rises 18:43:29 0° 191° (S) 2,931 5.7 -5.8°
Reaches altitude 10° 18:45:54 10° 202° (SSW) 2,027 5.0 -6.1°
Maximum altitude 18:49:49 31° 264° (W) 1,136 4.5 -6.6°
Drops below altitude 10° 18:53:45 10° 327° (NNW) 2,041 6.7 -7.1°
Sets 18:56:11 0° 338° (NNW) 2,955 7.4 -7.4°
